TimePST,TemperatureF,Dew PointF,Humidity,Sea Level PressureIn,VisibilityMPH,Wind Direction,Wind SpeedMPH,Gust SpeedMPH,PrecipitationIn,Events,Conditions,WindDirDegrees,DateUTC
12:24 AM,1.4,-0.4,92,30.12,5.0,Calm,Calm,-,N/A,,Partly Cloudy,0,2012-12-28 08:24:00
12:55 AM,3.9,-0.9,80,30.25,5.0,Calm,Calm,-,N/A,,Haze,0,2012-12-28 08:55:00
1:55 AM,5.0,1.0,84,30.25,3.0,Calm,Calm,-,N/A,,Clear,0,2012-12-28 09:55:00
2:55 AM,3.0,-0.0,87,30.26,7.0,Calm,Calm,-,N/A,,Clear,0,2012-12-28 10:55:00
3:55 AM,3.9,-0.0,84,30.24,10.0,Calm,Calm,-,N/A,,Clear,0,2012-12-28 11:55:00
4:55 AM,3.0,-0.0,87,30.25,10.0,Calm,Calm,-,N/A,,Clear,0,2012-12-28 12:55:00
5:55 AM,3.9,1.0,88,30.24,9.0,Calm,Calm,-,N/A,,Clear,0,2012-12-28 13:55:00
6:55 AM,5.0,1.9,87,30.26,10.0,Calm,Calm,-,N/A,,Clear,0,2012-12-28 14:55:00
7:55 AM,3.0,-0.9,84,30.27,10.0,NW,3.5,-,N/A,,Clear,310,2012-12-28 15:55:00
8:55 AM,6.1,3.0,87,30.28,10.0,Calm,Calm,-,N/A,,Clear,0,2012-12-28 16:55:00
9:55 AM,14.0,10.9,88,30.27,6.0,ENE,3.5,-,N/A,,Clear,60,2012-12-28 17:55:00
10:55 AM,19.9,18.0,92,30.23,7.0,Calm,Calm,-,N/A,,Mostly Cloudy,0,2012-12-28 18:55:00
11:55 AM,25.0,19.9,81,30.19,10.0,Calm,Calm,-,N/A,,Mostly Cloudy,0,2012-12-28 19:55:00
12:55 PM,28.9,21.0,72,30.16,10.0,South,9.2,-,N/A,,Mostly Cloudy,180,2012-12-28 20:55:00
1:55 PM,30.0,21.0,69,30.15,10.0,South,8.1,-,N/A,,Mostly Cloudy,190,2012-12-28 21:55:00
2:55 PM,24.1,18.0,77,30.19,10.0,West,3.5,-,N/A,,Mostly Cloudy,270,2012-12-28 22:55:00
3:55 PM,25.0,19.0,78,30.19,10.0,Calm,Calm,-,N/A,,Overcast,0,2012-12-28 23:55:00
4:53 PM,26.6,24.8,93,30.04,2.5,SSE,6.9,-,0.00,Snow,Light Snow,160,2012-12-29 00:53:00
4:55 PM,27.0,24.1,89,30.19,2.5,South,6.9,-,0.00,Snow,Light Snow,170,2012-12-29 00:55:00
5:10 PM,26.6,24.8,93,30.04,3.0,South,5.8,-,0.00,Snow,Light Snow,170,2012-12-29 01:10:00
5:21 PM,26.6,24.8,93,30.04,2.5,SSE,5.8,-,0.00,Snow,Light Snow,160,2012-12-29 01:21:00
5:55 PM,26.1,24.1,92,30.19,2.5,South,6.9,-,0.01,Snow,Light Snow,170,2012-12-29 01:55:00
6:22 PM,26.6,24.8,93,30.04,4.0,South,3.5,-,0.00,Snow,Light Snow,180,2012-12-29 02:22:00
6:31 PM,26.6,24.8,93,30.04,4.0,South,4.6,-,0.00,Snow,Light Snow,180,2012-12-29 02:31:00
6:55 PM,26.1,24.1,92,30.19,5.0,Calm,Calm,-,0.00,Snow,Light Snow,0,2012-12-29 02:55:00
7:11 PM,26.6,24.8,93,30.04,2.5,Calm,Calm,-,0.00,Snow,Light Snow,0,2012-12-29 03:11:00
7:36 PM,26.6,24.8,93,30.04,3.0,Calm,Calm,-,0.00,Snow,Light Snow,0,2012-12-29 03:36:00
7:55 PM,25.0,24.1,96,30.19,4.0,Calm,Calm,-,0.01,Snow,Light Snow,0,2012-12-29 03:55:00
8:08 PM,26.6,24.8,93,30.04,4.0,Calm,Calm,-,0.00,Snow,Light Snow,0,2012-12-29 04:08:00
8:37 PM,24.8,24.8,100,30.04,2.5,Calm,Calm,-,0.00,Snow,Light Snow,0,2012-12-29 04:37:00
8:47 PM,24.8,23.0,93,30.04,4.0,Calm,Calm,-,0.00,Snow,Light Snow,0,2012-12-29 04:47:00
8:55 PM,25.0,24.1,96,30.19,3.0,Calm,Calm,-,0.00,Snow,Light Snow,0,2012-12-29 04:55:00
9:26 PM,24.8,23.0,93,30.04,2.0,Calm,Calm,-,0.00,Snow,Light Snow,0,2012-12-29 05:26:00
9:39 PM,24.8,23.0,93,30.04,4.0,Calm,Calm,-,0.00,Snow,Light Snow,0,2012-12-29 05:39:00
9:55 PM,25.0,23.0,92,30.16,6.0,Calm,Calm,-,0.00,,Overcast,0,2012-12-29 05:55:00
10:55 PM,24.1,21.9,91,30.15,7.0,Calm,Calm,-,N/A,,Overcast,0,2012-12-29 06:55:00
11:55 PM,25.0,23.0,92,30.13,8.0,Calm,Calm,-,N/A,,Overcast,0,2012-12-29 07:55:00